World > North America > United States > Texas

Happy Valley, Texas Regional Weather

Lat: 32.13N, Lon: 100.11W
Wx Zone: TXZ127Web Search

Helpful Tip: Abbreviated, 7 Day, 14 Day Forecasts. There is a weather forecast for every taste.

Feedback


°F Click to change Happy Valley hourly weather to Imperial units.Click to change Happy Valley hourly weather to Metric units. °C
Happy Valley Weather Map
UTC Time: 4/16/2021, 17:27
Your Time:

Happy Valley, TX Regional Weather

Expires:202104161800;;647952
ASUS44 KFWD 161715
RWRTX 
NORTH TEXAS HOURLY WEATHER ROUNDUP
NATIONAL WEATHER SERVICE FORT WORTH TX
1200 PM CDT FRI APR 16 2021

NOTE: "FAIR" INDICATES FEW OR NO CLOUDS BELOW 12,000 FEET WITH NO
SIGNIFICANT WEATHER AND/OR OBSTRUCTIONS TO VISIBILITY.


TXZ083>090-098>101-113>116-127>130-139>142-154-155-161800-
WESTERN NORTH TEXAS
  
CITY           SKY/WX    TMP DP  RH WIND       PRES   REMARKS
WICHITA FALLS  CLOUDY    53  52  96 N10       29.89R FOG              
WF-KICKAPOO    CLOUDY    53  52  97 N12       29.91R                  
VERNON         CLOUDY    52  52 100 N14       29.93S                  
ABILENE        CLOUDY    54  53  97 N15       29.89S FOG              
ABILENE-DYESS  CLOUDY    53  51  93 N9        29.89S                  
BRECKENRIDGE   CLOUDY    58  58 100 N7        29.87R FOG              
CISCO          CLOUDY    57  57 100 N9        29.85S FOG              
EASTLAND       CLOUDY    57  56  98 N9        29.86S                  
RANGER         CLOUDY    58  58 100 N5        29.86S                  
MINERAL WELLS  CLOUDY    61  57  87 CALM      29.84R                  
STEPHENVILLE   CLOUDY    60  59  95 N6        29.87S                  
COMANCHE       CLOUDY    60  60 100 N6        29.85S                  
BROWNWOOD      PTSUNNY   63  63 100 N7        29.84F                  
COLEMAN        CLOUDY    61  58  90 N9        29.86R                  
BRADY          CLOUDY    63  61  94 N10       29.83R                  
$$


SKY/WX - Weather  TMP - Temperature  DP - Dew Point  RH - Relative Humidity
WIND - Wind Direction/Speed PRES - Barometric Pressure VSB - Visibility
WCI - Wind Chill Index E13G22 Wind - East Wind 13 mph/Gusts of 22 mph